User: anonymous   Login
Location: Ellerstadt
(49.4644°N, 8.2615°E)
Time: 23:44:16
(UTC+00:00)
Language:

FALCON 9 DEB - Orbit

View from above orbital plane
View from above orbital plane
View from above satellite
View from above satellite

Ground track
Ground track

The orbit data is extracted from the following two-line orbital elements,

1 46087U 20055BN  21138.15065943  .00015373  00000-0  15637-3 0  9999
2 46087  53.0075 343.9800 0012530 124.8729 235.3464 15.65323035 48954
Epoch (UTC): 18 May 2021 03:36:56
Eccentricity: 0.0012530
inclination: 53.0075°
perigee height: 364 km
apogee height: 381 km
right ascension of ascending node: 343.9800°
argument of perigee: 124.8729°
revolutions per day: 15.65323035
mean anomaly at epoch: 235.3464°
orbit number at epoch: 4895

The dashed part of the orbit path shows where the satellite is in the earth's shadow,  

DLR